Location: Newark
(48.1500°N, 2.9667°W)
Time: 02:02:32
(UTC+00:00)

Courier 1B - Pass Details

Date: 25 January 2020
Orbit: 962 x 1209 km, 28.3° (Epoch: 25 February)

Event Time Altitude Azimuth Distance (km) Brightness Sun altitude
Rises 07:06:25 0° 245° (WSW) 4,033 10.3 -7.3°
Reaches altitude 10° 07:11:45 10° 214° (SW) 3,111 10.0 -6.5°
Maximum altitude 07:14:01 11° 197° (SSW) 3,012 10.1 -6.1°
Drops below altitude 10° 07:16:18 10° 180° (S) 3,131 10.5 -5.8°
Sets 07:21:44 0° 150° (SSE) 4,101 11.7 -5.0°
